FW2475 Weather Reports


Display with metric or nautical units.
time (UTC)temp
F
wind
direction
speed
MPH
gust
MPH
rain 1hr
in
rain 24hr
in
rain mn
in
humidity
%
barometer
mb
20260509054541 52 177 2.0 5.0 0.00 0.05 0.00 44 1010.1
20260509053042 52 190 1.0 3.0 0.00 0.05 0.00 42 1010.3
20260509051537 51 191 0.0 2.0 0.00 0.05 0.00 40 1010.3
20260509050035 52 190 1.0 4.0 0.00 0.05 0.00 40 1010.3
20260509044535 51 180 2.0 3.0 0.00 0.05 0.00 37 1010.4
20260509043033 51 176 1.0 2.0 0.00 0.05 0.00 37 1010.4
20260509041531 52 176 1.0 2.0 0.00 0.05 0.00 39 1010.5
20260509040027 52 175 1.0 3.0 0.00 0.05 0.00 40 1010.7
20260509034526 54 175 0.0 4.0 0.00 0.05 0.05 40 1010.7
20260509033026 54 151 1.0 3.0 0.00 0.05 0.05 40 1010.8
20260509031527 54 150 0.0 2.0 0.00 0.05 0.05 40 1010.7
20260509030025 55 360 2.0 4.0 0.00 0.05 0.05 40 1011.0
20260509024524 55 187 0.0 3.0 0.00 0.05 0.05 40 1011.0
20260509023024 54 187 0.0 1.0 0.00 0.05 0.05 43 1010.9
20260509021524 55 187 1.0 3.0 0.00 0.05 0.05 43 1011.1
20260509020035 55 360 2.0 6.0 0.00 0.05 0.05 44 1010.8
20260509014538 56 360 3.0 6.0 0.00 0.16 0.05 46 1010.8
20260509013030 56 360 2.0 5.0 0.00 0.16 0.05 47 1010.7
20260509011521 57 360 5.0 8.0 0.00 0.16 0.05 47 1010.7
20260509010019 57 360 4.0 9.0 0.00 0.16 0.05 46 1010.5
20260509004520 58 211 4.0 9.0 0.00 0.20 0.05 44 1010.4
20260509003028 59 215 7.0 12.0 0.00 0.20 0.05 41 1010.3
20260509001517 60 210 6.0 10.0 0.00 0.20 0.05 41 1010.3
20260509000016 60 219 6.0 12.0 0.00 0.20 0.05 42 1010.3
20260508234516 61 215 9.0 15.0 0.00 0.20 0.05 42 1010.5
20260508233015 61 214 7.0 15.0 0.00 0.20 0.05 42 1010.4
20260508231514 61 223 11.0 15.0 0.00 0.20 0.05 40 1010.4
20260508230018 62 224 7.0 17.0 0.00 0.20 0.05 39 1010.4
20260508224512 63 238 8.0 14.0 0.00 0.20 0.05 37 1010.6
20260508223016 63 250 11.0 19.0 0.00 0.20 0.05 39 1010.7
20260508221509 63 233 13.0 18.0 0.00 0.20 0.05 37 1010.7
20260508220008 62 269 12.0 18.0 0.00 0.20 0.05 37 1010.7
20260508214514 62 227 12.0 20.0 0.00 0.20 0.05 40 1010.7
20260508213006 61 251 13.0 18.0 0.00 0.20 0.05 40 1010.8
20260508211506 61 213 15.0 22.0 0.00 0.20 0.05 40 1010.9
20260508210006 61 243 13.0 23.0 0.00 0.20 0.05 40 1010.9
20260508204505 62 254 13.0 23.0 0.00 0.20 0.05 39 1011.0
20260508203107 62 227 14.0 20.0 0.00 0.20 0.05 38 1011.2
20260508201606 63 249 15.0 21.0 0.00 0.20 0.05 39 1011.3
20260508194558 61 238 11.0 18.0 0.00 0.20 0.05 39 1011.3
20260508193057 61 219 11.0 17.0 0.00 0.20 0.05 40 1011.4
20260508191555 62 228 7.0 11.0 0.00 0.20 0.05 37 1011.7
20260508190054 62 230 5.0 9.0 0.00 0.20 0.05 35 1012.0
20260508184551 61 239 7.0 11.0 0.00 0.20 0.05 37 1012.3
20260508183049 61 229 7.0 12.0 0.00 0.20 0.05 37 1012.3
20260508181556 61 211 6.0 8.0 0.00 0.20 0.05 39 1012.4
20260508180047 61 198 2.0 7.0 0.00 0.20 0.05 37 1012.6
20260508174554 61 250 4.0 11.0 0.00 0.20 0.05 35 1013.2
20260508173045 61 189 5.0 10.0 0.00 0.20 0.05 38 1013.4
20260508171541 60 194 5.0 10.0 0.00 0.20 0.05 36 1013.6
20260508170040 60 192 6.0 9.0 0.00 0.20 0.05 37 1013.8
20260508164538 59 193 6.0 10.0 0.00 0.20 0.05 39 1013.9
20260508163035 58 211 6.0 9.0 0.00 0.20 0.05 38 1014.2
20260508161533 58 191 3.0 8.0 0.00 0.20 0.05 39 1014.3
20260508160034 58 196 5.0 10.0 0.00 0.20 0.05 39 1014.4
20260508154630 57 251 6.0 9.0 0.00 0.20 0.05 40 1014.6
20260508153027 56 207 6.0 10.0 0.00 0.20 0.05 40 1014.7
20260508151529 56 184 6.0 10.0 0.00 0.20 0.05 39 1014.5
20260508150031 55 223 5.0 10.0 0.00 0.20 0.05 40 1014.5
20260508144521 55 199 5.0 10.0 0.00 0.20 0.05 37 1014.6
20260508143019 53 202 7.0 11.0 0.00 0.20 0.05 36 1014.8
20260508141516 52 197 6.0 10.0 0.00 0.20 0.05 41 1014.7
20260508140010 51 203 4.0 8.0 0.00 0.20 0.05 44 1014.9
20260508134507 50 165 2.0 5.0 0.02 0.20 0.05 44 1015.0
20260508133005 50 180 1.0 3.0 0.03 0.20 0.05 44 1015.1
20260508131505 50 215 0.0 3.0 0.04 0.20 0.05 44 1015.5
20260508130000 49 212 2.0 5.0 0.04 0.20 0.05 43 1015.6
20260508124603 49 229 1.0 3.0 0.04 0.19 0.04 43 1015.5
20260508123058 49 227 1.0 3.0 0.02 0.17 0.02 43 1015.4
20260508121601 49 137 0.0 5.0 0.01 0.16 0.01 44 1015.1
20260508120052 48 188 1.0 2.0 0.01 0.16 0.01 45 1014.8
20260508114549 47 190 0.0 1.0 0.00 0.15 0.00 45 1015.0
20260508113103 46 190 0.0 0.0 0.00 0.15 0.00 44 1015.0
20260508111550 45 190 0.0 2.0 0.00 0.15 0.00 43 1014.9
20260508110047 45 190 0.0 0.0 0.00 0.15 0.00 42 1014.8
20260508104544 44 190 0.0 0.0 0.00 0.15 0.00 40 1014.8
20260508103042 44 190 0.0 0.0 0.00 0.15 0.00 39 1014.6
20260508101541 44 190 0.0 0.0 0.00 0.15 0.00 38 1014.6
20260508100039 44 190 0.0 0.0 0.00 0.15 0.00 37 1014.9
20260508094539 45 190 0.0 0.0 0.00 0.15 0.00 37 1014.8
20260508093045 45 190 0.0 0.0 0.00 0.15 0.00 37 1014.8
20260508091547 45 190 0.0 0.0 0.00 0.15 0.00 36 1014.9
20260508090040 45 190 0.0 0.0 0.00 0.15 0.00 36 1014.8
20260508084536 45 190 0.0 0.0 0.00 0.15 0.00 35 1014.9
20260508083040 45 190 0.0 0.0 0.00 0.15 0.00 35 1015.1
20260508081535 45 190 0.0 0.0 0.00 0.15 0.00 35 1014.9
20260508080036 45 190 0.0 0.0 0.00 0.15 0.00 35 1014.9
20260508074545 45 190 0.0 0.0 0.00 0.15 0.00 35 1014.8
20260508073032 45 190 0.0 0.0 0.00 0.15 0.00 35 1014.8
20260508071533 45 190 0.0 0.0 0.00 0.15 0.00 35 1014.9
20260508070032 45 360 0.0 2.0 0.00 0.15 0.00 35 1014.9
20260508064531 45 360 0.0 1.0 0.00 0.15 0.00 34 1014.9
20260508063030 45 190 1.0 3.0 0.00 0.15 0.00 34 1014.9
20260508061529 46 190 1.0 4.0 0.00 0.15 0.00 34 1014.9
20260508060028 46 180 2.0 4.0 0.00 0.15 0.00 33 1015.1